Theta_e
327 329 329 327 325 323 321 322 323 325 324 322 320 319 319 320 321 322 321 322 319 319 319 319 318 320 315 314 316 316 315 315 311 314 316 322 324 327 327 330 328 327 327
327 328 328 327 325 322 321 322 324 324 324 323 320 319 319 319 320 321 319 319 318 318 318 318 317 316 319 321 316 320 317 319 313 313 319 317 322 326 328 328 328 324 325
326 325 327 326 325 324 323 324 324 324 324 323 321 319 318 318 319 320 319 318 318 319 319 317 318 318 319 319 320 319 318 318 318 317 315 318 320 325 326 328 327 329 326
325 324 324 324 325 325 325 323 323 324 323 323 322 320 319 319 318 318 319 317 317 318 320 320 319 318 320 321 320 321 321 321 321 318 315 315 318 323 327 325 325 328 323
324 322 323 325 325 325 325 324 324 324 324 323 322 322 321 319 317 318 317 316 316 316 319 320 322 322 321 319 318 321 322 321 320 315 314 315 319 325 322 329 327 329 328
322 322 323 323 324 325 325 325 326 325 324 324 323 323 322 319 311 311 313 316 315 316 319 321 323 321 321 317 317 317 318 322 319 320 320 320 323 325 328 326 326 323 320
323 323 323 323 322 324 324 325 325 327 328 326 325 324 324 324 313 309 309 316 315 316 319 322 320 321 321 323 316 315 315 314 314 319 317 320 322 325 325 323 323 323 320
323 323 323 323 322 323 324 324 330 330 329 326 327 326 325 324 313 308 307 317 316 320 321 323 320 322 324 322 323 321 322 324 322 320 322 322 325 326 326 325 324 324 324
322 324 325 324 323 323 323 326 331 330 326 324 328 326 328 326 312 310 310 318 316 320 322 324 324 324 308 305 318 318 321 323 318 315 311 307 304 304 309 321 318 318 315
321 322 325 327 326 325 326 327 329 327 326 325 325 329 322 326 311 305 309 316 315 318 324 324 313 318 304 303 316 319 320 322 324 323 322 316 310 318 307 320 324 318 316
316 320 321 320 320 323 323 325 323 326 327 328 326 328 328 327 326 304 302 317 313 314 317 317 319 308 306 304 302 317 320 315 320 323 325 328 326 326 324 322 324 323 319
313 313 314 316 315 314 316 319 319 316 316 317 319 325 324 326 305 304 300 300 310 314 316 318 316 302 305 306 304 308 303 304 318 321 324 323 324 326 327 325 326 327 326
309 310 311 312 312 311 313 313 311 314 310 308 305 305 310 309 303 301 301 300 301 306 314 311 304 304 303 303 300 301 300 315 317 321 323 324 326 328 327 326 325 326 324
304 305 306 305 302 306 306 307 307 306 306 304 302 300 303 302 297 295 294 301 302 307 309 315 312 309 305 307 311 312 315 317 317 323 321 323 325 324 324 323 322 321 317
300 300 300 299 300 300 301 300 299 303 297 296 298 299 295 293 291 291 291 292 294 296 295 310 315 319 320 319 317 319 318 319 319 323 321 322 318 323 322 323 323 317 315
298 297 296 296 297 297 297 297 296 295 295 293 295 295 297 292 290 290 290 291 291 293 299 305 310 311 312 315 315 315 317 316 320 320 321 318 318 321 320 322 324 317 316
296 296 295 295 295 295 296 295 295 297 294 293 294 293 290 288 290 290 290 290 291 294 300 302 305 309 311 314 315 314 314 318 318 319 317 320 319 322 318 320 319 319 317
297 294 295 294 294 295 294 295 295 294 294 295 294 293 290 290 290 290 290 291 298 297 295 294 293 294 302 305 308 314 314 318 319 317 319 320 318 318 317 319 318 317 317
295 295 294 294 294 294 294 294 294 294 294 294 295 294 292 290 291 291 291 296 297 297 298 295 293 293 294 299 304 302 304 314 317 317 320 318 318 317 317 318 316 307 311
295 294 290 294 294 294 294 294 294 293 293 293 293 294 295 293 293 295 296 296 296 296 297 297 296 294 294 295 299 300 300 300 309 318 316 318 318 318 316 318 317 316 316
294 294 291 294 294 294 294 293 293 293 293 293 293 293 285 292 293 295 295 295 296 296 296 297 297 299 295 294 295 297 299 299 301 302 317 319 318 317 317 317 316 314 316
294 293 294 293 294 294 294 293 293 293 293 292 293 293 286 293 294 293 293 293 294 294 295 295 296 296 297 298 295 295 296 297 300 300 301 312 317 317 317 316 316 315 317
294 293 293 294 294 292 293 293 292 292 293 293 293 293 293 293 292 292 292 293 293 293 293 293 293 294 296 299 301 297 295 295 297 298 301 300 303 315 316 316 316 314 315
293 292 292 293 293 293 292 293 293 290 292 292 292 292 292 293 292 292 293 293 293 292 293 292 293 293 294 295 297 300 299 297 297 297 297 297 297 295 315 316 315 316 317
292 292 292 292 292 291 291 291 291 292 292 292 292 293 293 294 292 293 293 293 293 292 292 293 292 293 293 293 293 296 295 287 293 290 295 294 296 298 297 313 318 318 317
293 293 293 292 292 292 292 292 292 292 291 291 291 293 292 293 291 293 291 292 292 291 291 291 292 292 293 294 294 289 288 288 290 287 295 294 294 296 300 301 316 315 314
Wind_Speed
5 3 1 3 3 4 4 5 5 6 6 6 6 7 8 8 8 7 6 12 7 6 8 10 9 9 8 5 6 8 7 7 8 7 5 6 5 7 6 7 10 7 9
3 0 2 2 4 5 5 6 6 7 7 7 7 8 8 9 9 8 8 9 11 7 9 9 8 9 8 9 8 8 8 8 9 9 8 9 8 7 6 8 8 6 4
5 3 4 2 4 6 7 7 7 8 8 9 8 8 9 9 10 9 6 9 12 12 10 12 10 8 9 9 10 10 7 5 6 8 7 8 10 5 6 7 8 7 4
5 5 5 4 6 6 7 8 9 9 10 9 9 9 10 10 10 12 8 11 13 13 11 11 11 10 10 10 9 11 10 8 8 8 6 7 9 8 5 6 6 5 6
5 4 5 5 6 6 7 8 9 10 10 11 11 11 10 10 10 7 10 12 13 14 12 10 11 10 7 10 9 9 8 9 7 5 7 9 8 5 6 5 5 6 7
4 6 5 5 6 7 9 9 10 10 10 10 11 12 11 9 6 6 6 11 13 14 11 11 8 11 13 15 13 15 12 10 8 6 7 9 10 8 6 5 5 6 5
4 5 6 5 8 9 10 11 12 10 10 11 11 12 12 12 6 9 9 9 12 13 12 9 10 11 7 11 12 14 14 14 16 10 10 10 9 8 6 6 7 5 6
5 6 9 8 10 13 12 12 12 10 11 9 12 12 11 11 8 11 10 9 12 12 10 8 9 12 11 8 10 9 12 11 13 9 10 9 8 8 7 5 5 5 4
8 9 11 11 12 12 13 13 11 10 9 12 13 13 12 12 8 9 8 10 11 9 10 10 11 12 2 2 8 12 13 11 5 8 7 6 6 6 7 7 5 4 3
11 12 12 12 11 12 13 13 11 11 12 12 14 12 13 11 9 13 10 8 10 7 10 9 10 9 9 7 7 10 10 10 7 7 8 9 10 9 10 8 6 5 3
12 12 11 10 11 11 12 12 12 12 12 12 13 12 13 13 12 13 14 8 9 8 7 8 3 9 8 7 6 9 7 8 8 7 6 5 5 6 6 7 6 4 5
11 12 12 12 11 11 13 11 12 11 11 10 13 11 11 8 23 7 5 13 8 9 11 8 4 5 9 8 7 9 6 7 9 5 5 4 5 5 5 4 5 5 4
11 11 11 12 10 12 10 10 9 5 6 7 8 9 11 12 9 17 14 14 12 10 11 7 5 10 10 9 15 14 9 8 10 7 6 6 5 4 4 3 3 5 7
12 12 11 11 12 11 11 10 10 7 8 8 9 9 10 8 10 11 12 14 18 12 14 12 14 12 10 10 6 9 9 10 10 6 6 6 4 4 5 4 6 6 7
11 11 10 10 11 11 9 9 9 9 7 9 9 6 7 7 9 9 8 8 9 11 15 13 11 8 9 9 10 10 9 8 7 5 7 5 3 6 5 4 4 7 9
11 10 9 10 9 9 9 10 2 4 5 5 5 3 1 5 9 11 13 15 15 15 6 9 11 11 11 8 8 7 8 6 6 5 9 4 4 5 5 7 5 7 7
10 9 9 9 9 9 8 10 9 8 7 8 12 10 5 2 9 13 13 16 14 6 4 8 9 11 10 8 7 8 9 12 7 7 8 5 3 3 7 6 7 6 6
11 8 7 9 10 10 9 10 9 9 10 10 5 10 8 3 9 17 15 13 5 3 5 6 8 10 12 10 14 9 6 10 10 5 9 4 5 6 5 7 6 8 8
10 9 10 9 10 10 10 9 10 10 10 10 9 9 13 11 14 20 14 8 10 8 5 4 4 7 8 12 11 10 15 14 9 5 6 6 7 6 7 7 9 12 11
11 10 8 9 10 10 9 9 9 10 11 9 9 10 9 12 12 11 9 9 9 10 11 9 2 3 4 7 12 11 11 12 18 6 5 6 7 7 6 12 9 10 11
10 10 9 11 9 9 9 9 9 11 10 9 10 8 3 9 12 10 11 11 12 14 14 13 13 3 4 2 8 11 11 11 12 15 5 9 6 7 9 10 11 9 9
10 11 11 10 10 10 8 10 11 11 10 10 10 10 8 8 9 11 12 12 12 13 14 15 14 15 11 2 2 8 10 10 13 12 13 13 6 8 10 8 8 9 13
10 12 14 12 11 10 10 10 11 11 11 11 11 10 9 7 8 10 11 11 9 10 10 12 13 14 16 15 4 5 8 10 10 11 15 11 17 6 8 11 9 6 10
12 14 15 13 11 10 11 11 11 11 11 11 11 11 10 5 5 9 11 9 9 9 10 11 13 18 15 16 16 13 6 8 8 9 15 13 12 17 13 10 12 9 11
14 13 13 12 11 11 11 11 12 12 12 12 11 11 11 9 6 9 11 9 10 10 11 12 11 17 20 20 20 25 23 7 10 4 5 12 18 19 15 12 11 11 10
14 13 12 11 11 11 11 12 11 12 12 11 11 12 12 11 8 10 9 11 10 12 12 10 12 19 22 20 19 15 20 20 13 9 6 8 12 15 13 15 19 10 11
Wind_Direction
202 189 213 303 348 334 288 287 305 313 305 316 317 306 304 301 303 303 273 276 274 300 292 296 291 275 277 280 299 268 277 290 290 304 292 308 323 292 289 270 270 242 199
234 127 296 289 341 321 292 290 301 302 302 303 305 297 294 300 306 297 292 309 301 293 293 278 279 285 286 278 257 245 270 293 290 290 308 301 284 269 267 255 254 222 250
323 289 200 228 279 296 296 287 297 297 292 293 305 294 292 297 294 292 284 293 310 306 292 285 282 293 276 272 290 295 279 258 247 266 279 290 285 253 239 249 245 247 240
322 334 330 306 298 298 299 291 284 287 288 286 290 296 294 291 294 292 294 318 307 300 300 283 279 275 286 286 275 275 274 281 271 279 287 271 265 255 217 235 230 243 236
320 303 277 279 279 283 285 287 285 284 286 287 287 287 289 289 276 329 313 305 302 299 290 280 256 278 279 282 284 282 272 269 268 252 249 255 278 285 246 244 247 214 245
255 254 271 290 285 277 274 273 269 269 274 281 281 282 288 285 136 182 271 295 296 295 279 276 288 270 255 239 241 256 272 279 267 247 266 267 278 277 269 244 244 229 232
254 272 272 286 283 278 271 268 268 267 269 272 272 277 278 282 255 191 202 280 291 290 279 281 284 272 269 268 219 240 244 238 239 275 280 277 285 289 296 274 259 282 274
282 292 299 288 291 294 293 297 292 282 275 269 270 270 273 274 200 200 198 272 282 269 265 263 262 270 277 288 284 264 259 241 223 230 252 272 289 303 289 289 297 278 271
301 329 331 316 299 294 295 291 285 290 282 274 272 272 269 270 226 187 201 284 289 283 255 261 239 252 164 343 285 282 278 286 187 200 252 291 295 284 272 288 238 218 222
340 324 319 332 320 307 301 301 301 289 277 274 267 267 267 265 206 195 200 273 292 281 282 251 204 246 164 208 278 286 291 291 271 229 226 239 238 231 216 246 267 231 197
342 340 334 338 329 328 351 339 339 318 308 299 294 284 281 271 256 184 190 247 279 292 278 287 182 173 195 209 230 280 299 322 292 266 273 259 241 233 218 215 232 228 215
348 344 340 345 331 336 337 330 332 350 351 359 359 326 307 359 23 344 217 223 246 280 288 283 156 211 207 209 235 259 269 285 272 273 273 279 261 255 243 201 218 204 188
341 336 329 329 329 325 320 313 316 318 348 356 1 349 350 32 20 5 8 328 282 273 266 281 188 223 238 239 238 250 253 261 266 269 286 278 273 236 179 138 142 143 142
343 330 334 330 341 325 319 325 339 9 338 344 342 345 345 1 6 0 353 342 336 317 267 276 260 265 271 285 280 229 230 250 260 273 283 284 150 180 176 147 158 155 143
341 329 344 335 324 322 332 338 324 344 17 338 331 341 350 355 350 315 319 324 315 307 307 289 278 236 251 264 237 243 251 236 225 277 263 248 214 148 164 171 182 180 145
336 340 344 324 327 328 334 325 312 165 220 245 184 317 346 186 297 309 311 299 305 317 300 291 278 281 270 253 263 259 242 235 246 227 254 210 215 161 178 178 209 191 163
337 337 326 323 326 327 332 321 321 319 241 235 184 178 146 12 308 314 300 293 290 305 326 319 313 298 278 277 253 266 266 225 208 235 255 165 206 194 177 187 202 200 175
322 279 301 332 324 315 335 310 318 319 324 326 198 202 182 271 333 314 296 291 299 339 355 345 330 334 332 336 336 289 282 276 202 205 215 198 151 196 189 190 191 201 187
317 328 341 318 310 315 293 324 317 329 322 315 308 303 171 31 328 290 276 268 328 323 335 326 329 331 333 325 327 330 340 313 260 183 249 194 207 193 209 187 175 187 180
330 320 267 301 307 308 322 319 319 328 308 313 315 320 345 348 319 309 338 333 329 327 328 325 288 261 319 327 317 325 337 329 335 230 213 176 221 227 250 186 181 176 194
316 312 313 280 308 317 311 311 334 298 299 312 314 330 89 309 293 335 343 342 346 342 335 330 320 265 183 314 323 314 317 320 321 339 236 242 177 219 240 251 184 189 134
302 317 307 301 302 300 317 320 283 295 302 310 315 310 223 268 354 352 338 342 349 341 337 331 325 322 317 210 218 306 304 302 313 333 323 318 232 200 221 245 212 203 150
293 309 306 302 302 307 296 307 306 303 310 307 306 306 314 348 2 328 317 330 328 327 340 329 324 318 317 321 299 198 275 291 303 320 318 324 329 201 226 231 224 219 171
308 308 295 303 308 316 301 307 309 302 304 309 314 311 311 334 336 311 307 314 327 337 327 328 323 326 326 317 312 303 223 261 277 293 312 314 317 335 289 222 216 187 197
304 298 294 304 309 310 308 304 306 310 311 309 308 308 316 322 325 307 306 313 318 323 323 322 317 322 317 320 309 305 300 267 252 268 281 299 300 308 311 274 221 209 201
288 293 301 309 307 306 305 305 306 305 304 306 308 305 312 312 313 296 302 308 310 304 318 316 316 318 323 322 322 334 320 308 289 185 229 279 289 286 289 315 241 202 212